Weather History for Rawlins, WY

Change the Weather History Date:

Wednesday, February 27, 2013

  Actual Average Record
Temperature  
Mean Temperature 8 °F 27 °F  
Max Temperature 20 °F 37 °F 52 °F (2006)
Min Temperature -4 °F 17 °F -19 °F (1960)
Degree Days  
Heating Degree Days 57 38  
Month to date heating degree days 1190 1118  
Since 1 July heating degree days 5556 5917  
Cooling Degree Days 0 0  
Month to date cooling degree days 0 0  
Year to date cooling degree days 0 0  
Moisture  
Dew Point 5 °F    
Average Humidity 74    
Maximum Humidity 86    
Minimum Humidity 61    
Precipitation  
Precipitation 0.00 in 0.02 in 0.14 in (1978)
Month to date precipitation 0.19 0.40  
Year to date precipitation 0.36 0.76  
Sea Level Pressure  
Sea Level Pressure 30.43 in    
Wind  
Wind Speed 13 mph (WSW)    
Max Wind Speed 31 mph    
Max Gust Speed 38 mph    
Visibility 10 miles    
Events      
T = Trace of Precipitation, MM = Missing Value Source: NWS Daily Summary

Daily Weather History Graph

Daily Weather History Graph

Search for Another Location

Airport:

Trip Planner

Search our weather history database for the weather conditions in past years. The results will help you decide how hot, cold, wet, or windy it might be!

Date:

Astronomy

Feb. 27, 2013 Rise Set
Actual Time 6:46 AM MST 5:57 PM MST
Civil Twilight 6:18 AM MST 6:25 PM MST
Nautical Twilight 5:46 AM MST 6:57 PM MST
Astronomical Twilight 5:13 AM MST 7:29 PM MST
Moon 8:24 PM MST (2/27) 7:20 AM MST (2/27)
Length of Visible Light 12h 06m
Length of Day
11h 10m
Waning Gibbous, 96% of the Moon is Illuminated
Feb 27
Waning Gibbous
Mar 4
Last Quarter
Mar 11
New
Mar 19
First Quarter
Mar 27
Full

Hourly Weather History & Observations

Time (MST) Temp. Windchill Dew Point Humidity Pressure Visibility Wind Dir Wind Speed Gust Speed Precip Events Conditions
1:53 AM -2.9 °F - -8.0 °F 79% 30.40 in 10.0 mi Calm Calm - N/A   Clear
2:35 AM -2.2 °F -10.4 °F -7.6 °F 78% 30.17 in 10.0 mi WNW 3.5 mph - N/A   Scattered Clouds
2:53 AM 8.1 °F -3.2 °F 3.9 °F 83% 30.35 in 10.0 mi WSW 6.9 mph - N/A   Partly Cloudy
3:53 AM 9.0 °F -6.6 °F 3.9 °F 80% 30.36 in 10.0 mi WSW 12.7 mph - N/A   Clear
4:53 AM 8.1 °F -7.7 °F 3.0 °F 80% 30.37 in 10.0 mi WSW 12.7 mph - N/A   Clear
5:53 AM 7.0 °F -4.5 °F 1.9 °F 80% 30.41 in 10.0 mi SW 6.9 mph - N/A   Clear
6:53 AM 9.0 °F -0.9 °F 3.0 °F 77% 30.45 in 10.0 mi West 5.8 mph - N/A   Clear
7:53 AM 3.0 °F -8.0 °F -0.9 °F 84% 30.52 in 10.0 mi Variable 5.8 mph - N/A   Clear
8:53 AM 8.1 °F -0.5 °F 3.9 °F 83% 30.49 in 10.0 mi SW 4.6 mph - N/A   Clear
9:53 AM 14.0 °F 5.1 °F 7.0 °F 74% 30.50 in 10.0 mi SSW 5.8 mph - N/A   Clear
10:53 AM 17.1 °F 0.6 °F 7.0 °F 65% 30.49 in 10.0 mi WSW 19.6 mph - N/A   Clear
11:53 AM 18.0 °F 0.2 °F 7.0 °F 62% 30.49 in 10.0 mi WSW 24.2 mph 31.1 mph N/A   Clear
12:53 PM 18.0 °F 0.2 °F 8.1 °F 65% 30.48 in 10.0 mi SW 24.2 mph 36.8 mph N/A   Clear
1:53 PM 19.9 °F 3.9 °F 9.0 °F 62% 30.47 in 10.0 mi SW 20.7 mph 27.6 mph N/A   Clear
2:53 PM 19.9 °F 3.9 °F 9.0 °F 62% 30.43 in 10.0 mi SW 20.7 mph 31.1 mph N/A   Clear
3:53 PM 19.9 °F 3.9 °F 10.0 °F 65% 30.40 in 10.0 mi WSW 20.7 mph 28.8 mph N/A   Clear
4:53 PM 19.0 °F 5.0 °F 9.0 °F 65% 30.42 in 10.0 mi WSW 15.0 mph - N/A   Clear
5:53 PM 17.1 °F 4.3 °F 7.0 °F 65% 30.44 in 10.0 mi WSW 11.5 mph - N/A   Clear
6:53 PM 16.0 °F 0.1 °F 7.0 °F 68% 30.44 in 10.0 mi WSW 17.3 mph 23.0 mph N/A   Clear
7:53 PM 17.1 °F 3.0 °F 6.1 °F 62% 30.45 in 10.0 mi WSW 13.8 mph - N/A   Partly Cloudy
9:53 PM 15.1 °F 0.5 °F 5.0 °F 64% 30.42 in 10.0 mi WSW 13.8 mph - N/A   Clear
10:53 PM 14.0 °F -2.0 °F 5.0 °F 67% 30.43 in 10.0 mi WSW 16.1 mph - N/A   Clear
11:53 PM 14.0 °F -2.5 °F 5.0 °F 67% 30.43 in 10.0 mi WSW 17.3 mph - N/A   Clear